Regional Weather Roundup
Issued by NWS Portland, ME

Home | Current Version | Previous Version | Text Only | Print | Product List | Glossary On
Versions: 1 2 3 4 5 6 7 8 9 10 11 12 13 14 15 16 17 18 19 20 21 22 23 24 25 26 27 28 29 30 31 32 33 34 35 36 37 38 39 40 41 42 43 44 45 46 47 48 49 50
000
ASUS41 KGYX 270910
RWRGYX
WEATHER ROUNDUP FOR MAINE AND NEW HAMPSHIRE
NATIONAL WEATHER SERVICE GRAY ME
500 AM EDT WED JUL 27 2016

MEZ002-005-006-010-012-015-018-020-021-024-026-027-029-271000-
MAINE

CITY           SKY/WX    TMP DP  RH WIND       PRES   REMARKS
PORTLAND       PTCLDY    64  60  87 W3        29.89R
SANFORD          N/A     58  57  97 CALM      29.90S
BAR HARBOR     CLEAR     63  62  97 CALM      29.87R
WISCASSET      CLEAR     63  61  93 CALM      29.89R
ROCKLAND       CLEAR     65  62  90 W3        29.87R
FRYEBURG       NOT AVBL
LEWISTONAUBURN CLEAR     62  60  93 CALM      29.90R
AUGUSTA        CLEAR     67  61  81 W5        29.89R
WATERVILLE     CLEAR     63  62  97 CALM      29.86R
BANGOR         PTCLDY    67  62  84 CALM      29.87R
GREENVILLE       N/A     63  58  83 N3        29.89R
MILLINOCKET    CLEAR     65  63  93 CALM      29.86R
HOULTON        CLEAR     60  60 100 CALM      29.83R
PRESQUE ISLE   CLEAR     59  57  94 CALM      29.85R FOG
FRENCHVILLE    FOG       60  58  92 SW5       29.84R VSB 1/4
CARIBOU        CLEAR     62  61  96 CALM      29.83R
$$

NHZ002-005-008-009-011-012-014-271000-
NEW HAMPSHIRE

CITY           SKY/WX    TMP DP  RH WIND       PRES   REMARKS
PORTSMOUTH     CLEAR     65  61  86 W3        29.89S
ROCHESTER      CLEAR     62  59  90 NW5       29.90S
NASHUA         CLEAR     66  60  81 NW5       29.92R
MANCHESTER     CLEAR     66  58  75 CALM      29.90R
CONCORD        CLEAR     61  57  87 CALM      29.92S
LACONIA        CLEAR     63  60  90 CALM      29.93S
PLYMOUTH       FAIR      57  56  95 CALM      29.93R
BERLIN         FOG       53  51  93 CALM      29.96R VSB 1/4
WHITEFIELD     MOCLDY    54  52  93 CALM      29.96R FOG
JAFFREY        CLEAR     60  57  89 CALM      29.96S
KEENE          CLEAR     59  57  93 CALM      29.96S
LEBANON        CLEAR     58  55  90 CALM      29.94S FOG
MT WASHINGTON  FOG       48  48 100 NW25        N/A  VSB 1/16
$$

VTZ005-007-008-271000-
VERMONT

CITY           SKY/WX    TMP DP  RH WIND       PRES   REMARKS
ST JOHNSBURY     N/A     60  58  92 MISG      29.94R
MONTPELIER     CLOUDY    56  56 100 CALM      29.99S FOG
BURLINGTON     FAIR      63  59  87 E3        29.92S
$$

MAZ007-012-024-CTZ003-RIZ002-NYZ038-NYZ072-271000-
SOUTHERN NEW ENGLAND AND NY

CITY           SKY/WX    TMP DP  RH WIND       PRES   REMARKS
BOSTON         CLEAR     75  60  59 NW10      29.90R
WORCESTER      CLEAR     67  57  70 NW7       29.95S
NANTUCKET      CLEAR     72  65  78 N8        29.89R
PROVIDENCE     CLEAR     71  61  70 CALM      29.91S
HARTFORD       CLEAR     65  60  84 W3        29.92R
ALBANY         PTCLDY    66  59  78 S3        29.94F
NEW YORK CITY  MOCLDY    78  64  61 NE5       29.93S
$$

ANZ081-ANZ082-ANZ150-NHZ014-MEZ023>029-271000-
COASTAL MARINE OBSERVATIONS

STATION/POSITION TIME  TEMP    WIND        PRES    WAVE
                       AIR SEA DIR/SP/G            HT/PER
                 (UTC) (F)     (DEG/KT/KT) (MB)    (FT/S)
MOUNT DESERT ROC 0900   67     300/  9/ 10 1011.2R
MATINICUS ROCK   0800   65     300/  8/  8 1010.7R
ISLE OF SHOALS   0800   71     300/ 10/ 10 1011.7F
JEFFREYS LEDGE   0808      68                N/A     1/ 7
CASHES LEDGE BUO 0850   71 71  320/  8/ 10 1011.3R   2/ 8
GEORGES BANK BUO 0850   64 64              1010.4R   3/ 8
$$

.............KEY..............
   WCI - WIND CHILL
   TC  - TEMPERATURE IN CELSIUS
   VSB - VISIBILITY IN MILES
   HX  - HEAT INDEX
   FAIR- INDICATES FEW OR NO CLOUDS BELOW 12,000 FT, WITH NO
         SIGNIFICANT WEATHER AND/OR OBSTRUCTIONS TO VISIBILITY.






USA.gov is the U.S. government's official web portal to all federal, state and local government web resources and services.